ASA758 KSFO-KSEA

Flight info

Callsign ASA758
Flight time N/A
Altitude 38000
Route TRUKN2 DEDHD RBL LMT HAWKZ8
Aircraft B738/M-SDGIRW/LB1

Departure

Time 2026-05-03 23:52
Airport San Francisco International Airport (KSFO)

Arrival

Time N/A
Airport Seattle–Tacoma International Airport (KSEA)
Time Latitude Longitude Altitude Speed Heading
2026-05-03 23:14 37.61304 -122.38372 15 ft 0 kts 287°
2026-05-03 23:44 37.61304 -122.38371 15 ft 2 kts 287°
2026-05-03 23:44 37.61294 -122.38344 15 ft 4 kts 317°
2026-05-03 23:45 37.61273 -122.38332 16 ft 4 kts 14°
2026-05-03 23:45 37.61265 -122.38335 16 ft 0 kts 28°
2026-05-03 23:46 37.61308 -122.38305 15 ft 12 kts 28°
2026-05-03 23:46 37.61360 -122.38209 13 ft 14 kts 65°
2026-05-03 23:47 37.61399 -122.38102 15 ft 13 kts 70°
2026-05-03 23:47 37.61467 -122.38001 14 ft 20 kts 27°
2026-05-03 23:47 37.61594 -122.37918 15 ft 20 kts 27°
2026-05-03 23:47 37.61669 -122.37820 17 ft 13 kts 90°
2026-05-03 23:48 37.61657 -122.37687 17 ft 19 kts 97°
2026-05-03 23:48 37.61640 -122.37512 18 ft 21 kts 97°
2026-05-03 23:48 37.61620 -122.37335 22 ft 20 kts 98°
2026-05-03 23:48 37.61577 -122.37173 23 ft 21 kts 117°
2026-05-03 23:49 37.61507 -122.37006 24 ft 22 kts 118°
2026-05-03 23:49 37.61410 -122.36846 19 ft 27 kts 132°
2026-05-03 23:49 37.61300 -122.36625 17 ft 31 kts 118°
2026-05-03 23:49 37.61201 -122.36389 18 ft 29 kts 117°
2026-05-03 23:50 37.61109 -122.36167 18 ft 26 kts 110°
2026-05-03 23:50 37.61141 -122.36080 17 ft 17 kts 31°
2026-05-03 23:50 37.61167 -122.36062 15 ft 0 kts 27°
2026-05-03 23:51 37.61192 -122.36047 14 ft 15 kts 27°
2026-05-03 23:51 37.61266 -122.36062 14 ft 11 kts 291°
2026-05-03 23:51 37.61346 -122.36262 13 ft 63 kts 298°
2026-05-03 23:51 37.61704 -122.37106 28 ft 151 kts 297°
2026-05-03 23:52 37.62268 -122.38354 777 ft 168 kts 295°
2026-05-03 23:52 37.62976 -122.39478 2091 ft 169 kts 325°
2026-05-03 23:52 37.64183 -122.39850 2969 ft 198 kts
2026-05-03 23:52 37.65466 -122.39081 3877 ft 205 kts 40°
2026-05-03 23:53 37.66453 -122.37825 5043 ft 204 kts 58°
2026-05-03 23:53 37.67053 -122.36181 5906 ft 204 kts 69°
2026-05-03 23:53 37.67657 -122.34478 6432 ft 221 kts 69°
2026-05-03 23:53 37.68282 -122.32593 6745 ft 242 kts 74°
2026-05-03 23:54 37.68883 -122.30603 7388 ft 249 kts 73°
2026-05-03 23:54 37.69522 -122.28539 8063 ft 255 kts 71°
2026-05-03 23:54 37.70176 -122.26456 8872 ft 257 kts 72°
2026-05-03 23:54 37.70846 -122.24332 9588 ft 263 kts 72°
2026-05-03 23:55 37.71817 -122.22338 10260 ft 276 kts 45°
2026-05-03 23:55 37.73489 -122.21172 11096 ft 278 kts 19°
2026-05-03 23:55 37.75419 -122.20715 11788 ft 288 kts 11°
2026-05-03 23:55 37.77507 -122.20370 12074 ft 318 kts
2026-05-03 23:56 37.79805 -122.20024 12331 ft 345 kts
2026-05-03 23:56 37.82253 -122.19665 12876 ft 362 kts
2026-05-03 23:56 37.84754 -122.19294 13876 ft 362 kts
2026-05-03 23:56 37.87274 -122.18908 14646 ft 368 kts
2026-05-03 23:57 37.89835 -122.18498 15385 ft 374 kts 10°
2026-05-03 23:57 37.92430 -122.18073 16190 ft 377 kts
2026-05-03 23:57 37.95037 -122.17646 17038 ft 380 kts
2026-05-03 23:57 37.97687 -122.17214 17774 ft 387 kts
2026-05-03 23:58 38.00371 -122.16774 18539 ft 391 kts
2026-05-03 23:58 38.02971 -122.16350 19238 ft 393 kts 10°
2026-05-03 23:58 38.05780 -122.15893 19978 ft 396 kts 11°
2026-05-03 23:58 38.08525 -122.15440 20673 ft 399 kts 11°
2026-05-03 23:59 38.11291 -122.14985 21326 ft 403 kts 11°
2026-05-03 23:59 38.14085 -122.14526 21959 ft 407 kts 12°
2026-05-03 23:59 38.16862 -122.14067 22597 ft 410 kts 12°
2026-05-03 23:59 38.19706 -122.13598 23269 ft 414 kts 12°
2026-05-04 00:00 38.22563 -122.13127 23869 ft 416 kts 12°
2026-05-04 00:00 38.25439 -122.12651 24456 ft 416 kts 13°
2026-05-04 00:00 38.28318 -122.12172 25046 ft 418 kts 13°
2026-05-04 00:00 38.31205 -122.11694 25609 ft 419 kts 13°
2026-05-04 00:01 38.34108 -122.11273 26150 ft 422 kts
2026-05-04 00:01 38.37083 -122.11290 26648 ft 431 kts
2026-05-04 00:01 38.40082 -122.11498 27210 ft 432 kts
2026-05-04 00:01 38.43096 -122.11690 27733 ft 435 kts
2026-05-04 00:02 38.46112 -122.11979 28344 ft 433 kts
2026-05-04 00:02 38.49134 -122.12296 28740 ft 435 kts
2026-05-04 00:02 38.52174 -122.12506 28991 ft 439 kts
2026-05-04 00:02 38.55229 -122.12681 29559 ft 438 kts
2026-05-04 00:03 38.58272 -122.12939 29996 ft 439 kts
2026-05-04 00:03 38.61329 -122.13204 30271 ft 442 kts
2026-05-04 00:03 38.64388 -122.13418 30505 ft 449 kts
2026-05-04 00:03 38.67525 -122.13627 30831 ft 453 kts
2026-05-04 00:04 38.70690 -122.13835 31159 ft 457 kts
2026-05-04 00:04 38.73865 -122.14049 31583 ft 456 kts
2026-05-04 00:04 38.77027 -122.14271 32027 ft 455 kts
2026-05-04 00:04 38.80198 -122.14490 32332 ft 456 kts
2026-05-04 00:05 38.83380 -122.14705 32609 ft 458 kts
2026-05-04 00:05 38.86579 -122.14922 32972 ft 460 kts
2026-05-04 00:05 38.89771 -122.15152 33417 ft 459 kts
2026-05-04 00:05 38.92956 -122.15379 34007 ft 453 kts
2026-05-04 00:06 38.96084 -122.15599 34554 ft 449 kts
2026-05-04 00:06 38.99213 -122.15813 34730 ft 453 kts
2026-05-04 00:06 39.02383 -122.16030 34897 ft 458 kts
2026-05-04 00:06 39.05563 -122.16248 35203 ft 457 kts
2026-05-04 00:07 39.08734 -122.16469 35531 ft 456 kts
2026-05-04 00:07 39.11909 -122.16689 35853 ft 457 kts 360°
2026-05-04 00:07 39.15038 -122.16913 36190 ft 455 kts 359°
2026-05-04 00:07 39.18211 -122.17132 36430 ft 457 kts 359°
2026-05-04 00:08 39.21394 -122.17350 36681 ft 458 kts 359°
2026-05-04 00:08 39.24579 -122.17570 36979 ft 459 kts 358°
2026-05-04 00:08 39.27765 -122.17792 37206 ft 460 kts 358°
2026-05-04 00:08 39.30977 -122.18019 37395 ft 463 kts 358°
2026-05-04 00:09 39.34181 -122.18242 37838 ft 459 kts 357°
2026-05-04 00:09 39.36295 -122.18388 37912 ft 461 kts 357°
2026-05-04 00:09 39.42752 -122.18844 37922 ft 466 kts 357°
2026-05-04 00:10 39.49201 -122.19293 37915 ft 463 kts 357°
2026-05-04 00:10 39.55619 -122.19744 37925 ft 461 kts 357°
2026-05-04 00:11 39.62017 -122.20202 37919 ft 460 kts 357°
2026-05-04 00:11 39.68400 -122.20651 37917 ft 458 kts 357°
2026-05-04 00:12 39.74742 -122.21095 37919 ft 455 kts 358°
2026-05-04 00:12 39.81056 -122.21544 37923 ft 454 kts 357°
2026-05-04 00:13 39.87333 -122.21995 37913 ft 454 kts 358°
2026-05-04 00:13 39.93639 -122.22439 37912 ft 453 kts 358°
2026-05-04 00:14 39.99937 -122.22887 37937 ft 453 kts 357°
2026-05-04 00:14 40.06252 -122.23324 37925 ft 456 kts 358°
2026-05-04 00:15 40.12559 -122.23164 37944 ft 452 kts 11°
2026-05-04 00:15 40.18721 -122.21661 37951 ft 449 kts 12°
2026-05-04 00:16 40.24842 -122.20082 37938 ft 447 kts 13°
2026-05-04 00:16 40.30954 -122.18551 37941 ft 446 kts 12°
2026-05-04 00:17 40.37004 -122.17082 37894 ft 444 kts 12°
2026-05-04 00:17 40.43084 -122.15594 37910 ft 444 kts 12°
2026-05-04 00:18 40.49161 -122.14142 37895 ft 444 kts 12°
2026-05-04 00:18 40.55228 -122.12671 37892 ft 443 kts 12°
2026-05-04 00:19 40.61297 -122.11196 37888 ft 443 kts 12°
2026-05-04 00:19 40.67356 -122.09706 37890 ft 442 kts 13°
2026-05-04 00:20 40.73404 -122.08235 37902 ft 442 kts 12°
2026-05-04 00:20 40.79462 -122.06769 37898 ft 442 kts 12°
2026-05-04 00:21 40.85469 -122.05300 37900 ft 441 kts 13°
2026-05-04 00:21 40.91511 -122.03803 37891 ft 442 kts 13°
2026-05-04 00:22 40.97554 -122.02310 37892 ft 442 kts 13°
2026-05-04 00:22 41.03624 -122.00818 37898 ft 444 kts 13°
2026-05-04 00:23 41.09697 -121.99324 37904 ft 443 kts 12°
2026-05-04 00:23 41.15753 -121.97841 37905 ft 440 kts 14°
2026-05-04 00:24 41.17046 -121.97500 37926 ft 439 kts 14°
2026-05-04 00:24 41.23013 -121.96042 37921 ft 438 kts 12°
2026-05-04 00:25 41.28999 -121.94554 37936 ft 436 kts 13°
2026-05-04 00:25 41.34994 -121.93049 37943 ft 439 kts 13°
2026-05-04 00:26 41.40978 -121.91513 37921 ft 438 kts 12°
2026-05-04 00:26 41.46967 -121.90027 37958 ft 439 kts 13°
2026-05-04 00:27 41.52986 -121.88608 37943 ft 438 kts 12°
2026-05-04 00:27 41.59019 -121.87135 37937 ft 442 kts 12°
2026-05-04 00:28 41.65035 -121.85532 37942 ft 440 kts 13°
2026-05-04 00:28 41.71075 -121.84028 37926 ft 442 kts 12°
2026-05-04 00:29 41.77101 -121.82443 37919 ft 444 kts 13°
2026-05-04 00:29 41.83179 -121.80898 37962 ft 445 kts 12°
2026-05-04 00:30 41.89293 -121.79403 37947 ft 447 kts 13°
2026-05-04 00:30 41.95387 -121.77856 37948 ft 445 kts 11°
2026-05-04 00:31 42.01387 -121.76336 37978 ft 443 kts 12°
2026-05-04 00:31 42.07429 -121.74825 37980 ft 440 kts 12°
2026-05-04 00:32 42.13418 -121.73281 37976 ft 436 kts 12°
2026-05-04 00:32 42.16441 -121.72924 37960 ft 438 kts 356°
2026-05-04 00:32 42.19458 -121.73526 37924 ft 439 kts 352°
2026-05-04 00:33 42.28477 -121.75775 37913 ft 439 kts 352°
2026-05-04 00:34 42.34506 -121.77162 37911 ft 439 kts 352°
2026-05-04 00:34 42.40527 -121.78467 37920 ft 437 kts 353°
2026-05-04 00:35 42.46522 -121.79857 37900 ft 438 kts 352°
2026-05-04 00:35 42.52515 -121.81257 37890 ft 434 kts 352°
2026-05-04 00:36 42.58458 -121.82627 37900 ft 436 kts 351°
2026-05-04 00:36 42.64445 -121.84023 37880 ft 435 kts 352°
2026-05-04 00:37 42.70410 -121.85365 37898 ft 434 kts 352°
2026-05-04 00:37 42.76359 -121.86702 37893 ft 438 kts 352°
2026-05-04 00:38 42.82367 -121.88014 37896 ft 435 kts 352°
2026-05-04 00:38 42.88336 -121.89429 37898 ft 435 kts 351°
2026-05-04 00:39 42.94296 -121.90854 37891 ft 434 kts 352°
2026-05-04 00:39 43.00243 -121.92241 37906 ft 434 kts 352°
2026-05-04 00:40 43.05972 -121.93567 37903 ft 434 kts 352°
2026-05-04 00:40 43.11935 -121.94955 37909 ft 434 kts 352°
2026-05-04 00:41 43.17888 -121.96347 37909 ft 434 kts 352°
2026-05-04 00:41 43.23812 -121.97736 37920 ft 434 kts 352°
2026-05-04 00:42 43.29785 -121.99130 37926 ft 436 kts 352°
2026-05-04 00:42 43.35770 -122.00536 37933 ft 436 kts 352°
2026-05-04 00:43 43.41764 -122.01945 37908 ft 437 kts 352°
2026-05-04 00:43 43.47767 -122.03354 37919 ft 437 kts 352°
2026-05-04 00:44 43.53726 -122.04773 37909 ft 437 kts 352°
2026-05-04 00:44 43.59735 -122.06197 37929 ft 438 kts 352°
2026-05-04 00:45 43.65738 -122.07622 37925 ft 437 kts 352°
2026-05-04 00:45 43.71745 -122.09053 37913 ft 438 kts 352°
2026-05-04 00:46 43.77754 -122.10494 37913 ft 437 kts 352°
2026-05-04 00:46 43.83711 -122.11903 37910 ft 436 kts 352°
2026-05-04 00:47 43.89696 -122.13342 37923 ft 436 kts 352°
2026-05-04 00:47 43.95675 -122.14769 37911 ft 435 kts 352°
2026-05-04 00:48 44.01609 -122.16199 37898 ft 435 kts 352°